Wind_Speed
5 5 13 13 11 12 11 10 9 8 9 9 8 8 7 6 6 7 7 7 7 8 8 9 10 11 11 11 12 13 13 12 12 11 11 11 11 10 10 10 11 12 13 13 12 12 13 13 13 13 12 11 11 11 10 10 9 9 9 9 9 9 9 9 10 11 11 12 12 12 13 12 11 11 10 9 9 8 8 8 8 9 10 10 8
5 5 13 14 12 12 12 11 10 9 8 9 8 8 7 7 7 7 7 7 6 7 8 8 9 10 11 11 12 12 12 12 11 10 10 10 10 9 9 10 10 11 12 12 12 12 12 13 13 12 11 10 10 10 9 9 9 10 10 10 10 9 9 10 10 11 11 10 10 11 12 11 11 10 9 8 8 8 7 7 8 8 10 10 8
5 5 13 14 13 13 12 12 11 9 9 9 9 9 8 7 7 6 7 6 6 7 8 8 8 8 9 10 10 11 11 11 10 10 10 10 9 9 8 8 9 9 10 10 10 11 12 11 11 11 10 9 8 8 8 8 8 8 9 9 9 9 9 10 10 10 10 10 10 11 11 11 10 10 9 8 7 7 6 6 6 7 8 9 8
7 5 12 15 13 13 12 12 12 10 9 9 8 8 7 7 6 6 7 6 6 6 7 7 7 6 6 8 9 10 11 10 10 10 10 9 9 8 7 7 7 8 8 7 7 9 11 11 11 10 9 8 8 7 7 6 6 7 7 8 9 9 9 9 10 9 10 10 10 10 10 9 9 10 9 8 7 7 6 6 5 5 5 6 7
8 3 10 16 13 13 12 12 12 10 10 9 8 7 7 6 6 6 6 6 6 6 5 5 6 4 3 5 9 10 10 10 10 10 9 9 9 8 7 7 7 6 6 5 6 8 10 11 11 10 7 6 6 7 7 6 5 5 5 6 7 7 8 9 9 9 9 10 11 10 9 8 8 9 8 8 8 8 7 6 5 4 4 4 4
9 2 7 16 13 13 12 11 11 10 9 8 8 6 6 5 5 5 5 5 5 5 4 3 5 5 3 5 9 10 10 9 9 9 9 8 8 7 6 6 6 5 5 5 5 8 10 11 10 9 6 5 5 5 6 6 5 5 4 4 5 5 5 6 7 7 7 9 10 9 8 7 7 7 6 7 7 7 7 6 5 4 3 3 3
10 3 4 13 13 12 13 11 10 9 9 8 7 6 5 5 4 4 4 4 5 5 4 3 5 5 5 6 8 9 9 8 8 9 9 8 7 7 5 6 6 5 4 4 6 9 11 11 9 8 6 5 4 5 5 5 5 5 5 4 4 4 4 5 5 5 5 8 8 5 5 5 6 7 6 7 8 8 8 7 6 5 4 3 3
11 4 1 9 11 10 13 11 10 9 9 8 7 6 5 4 4 3 2 3 5 5 4 3 4 5 5 6 7 8 8 7 8 9 9 8 7 7 5 4 4 3 3 5 7 9 10 10 9 7 7 6 5 5 5 5 5 5 5 4 4 4 4 4 4 5 5 5 6 3 3 4 5 6 7 9 9 8 7 7 7 6 6 5 5
12 8 2 7 8 7 11 12 9 9 8 7 7 6 5 4 4 3 2 3 4 4 4 4 4 5 5 6 7 7 7 7 8 10 10 9 7 6 4 3 2 3 5 7 8 10 11 10 8 8 7 7 6 6 6 6 6 5 5 5 5 4 3 4 4 6 6 3 5 3 2 3 4 6 8 9 9 8 7 6 7 6 5 5 5
12 10 5 5 5 6 10 12 9 9 8 7 6 5 4 4 4 3 2 2 3 3 3 3 3 4 5 6 6 6 7 8 9 9 10 9 7 5 4 4 4 5 7 8 9 12 13 11 9 8 7 7 6 5 5 5 5 5 5 5 5 4 3 3 4 5 6 3 8 6 2 1 2 4 7 7 8 7 6 7 8 7 5 5 5
11 10 8 5 5 5 9 14 10 9 8 6 6 5 4 4 3 3 2 1 2 2 2 2 2 3 5 6 6 6 6 8 8 9 10 10 8 6 4 5 6 6 7 8 11 14 15 14 12 10 8 7 5 4 3 4 4 5 5 6 5 5 4 4 3 4 5 5 9 7 0 1 1 1 4 5 5 4 5 6 6 5 6 6 6
10 9 9 6 5 5 8 14 12 9 8 7 6 5 5 4 2 2 1 1 1 1 1 2 1 2 5 5 6 5 5 6 7 8 9 9 8 6 6 7 8 8 8 10 13 16 16 16 14 12 9 7 5 4 3 3 4 5 6 6 6 6 5 4 4 4 6 7 9 5 1 1 1 3 3 3 1 3 5 6 4 5 8 7 7
11 9 8 7 7 6 8 13 13 10 9 8 6 6 5 4 2 2 1 0 1 1 1 1 0 2 4 4 4 5 4 5 6 7 8 8 7 6 6 7 9 10 11 13 15 17 18 17 16 14 11 8 5 4 3 3 4 6 6 6 6 5 5 5 6 7 7 9 9 3 1 0 1 4 4 3 4 6 6 7 6 6 7 7 7
10 9 7 6 7 8 9 13 14 12 10 9 7 7 6 5 4 3 2 2 2 2 1 1 1 0 2 3 3 4 3 4 4 6 7 7 7 6 6 7 9 10 12 14 16 18 19 19 17 15 13 9 6 4 3 3 4 6 6 6 5 5 4 4 6 7 8 10 8 4 2 1 2 3 5 5 6 6 6 6 6 6 7 6 7
7 9 8 6 6 8 9 12 13 12 11 10 9 8 7 7 6 5 4 3 3 2 2 2 1 1 1 2 2 2 1 2 3 5 6 6 6 5 5 7 8 9 11 14 17 19 19 19 18 16 14 10 7 5 3 3 4 5 6 5 4 4 3 3 4 6 7 8 7 5 2 2 2 2 3 3 4 4 5 5 6 6 6 6 6
6 8 8 7 6 8 9 11 12 13 12 11 10 10 9 8 7 7 6 5 4 3 4 3 2 1 1 1 1 0 0 1 2 4 4 5 5 4 5 7 8 8 10 14 17 19 19 19 18 17 15 12 9 6 4 2 3 4 5 4 3 3 2 1 1 4 6 5 5 3 2 1 1 1 2 3 2 3 4 5 5 6 6 6 6
6 6 7 7 6 7 9 10 12 13 13 13 11 11 10 9 9 8 7 7 6 5 5 4 3 2 2 2 2 2 1 1 1 3 4 4 4 4 5 6 7 8 10 14 16 17 17 17 17 17 16 13 10 7 5 3 2 3 3 3 3 2 2 2 2 3 3 4 3 1 1 2 1 0 2 2 2 2 3 4 5 5 6 6 6
7 6 5 6 6 7 9 10 12 13 14 14 13 12 12 11 10 10 9 9 8 7 6 5 4 4 4 3 3 4 4 3 2 2 4 4 4 5 5 6 7 8 10 13 14 15 15 15 15 16 16 14 11 8 5 3 2 2 2 2 2 2 2 2 2 0 1 2 2 1 1 1 2 2 1 2 2 2 3 4 4 5 5 6 6
7 6 6 6 7 7 8 9 11 13 14 14 14 14 13 13 12 11 10 10 10 9 8 7 6 5 5 5 6 6 5 4 3 3 5 6 6 6 6 6 7 7 10 13 12 12 12 12 13 14 16 15 13 10 7 4 3 2 2 2 2 2 3 3 3 2 2 3 3 3 2 1 3 4 3 3 2 2 3 3 4 4 5 6 6
9 8 7 7 7 7 7 8 9 11 12 13 14 14 14 14 14 13 11 10 11 11 10 9 7 7 6 5 6 6 5 5 5 5 6 6 6 6 6 7 8 8 10 11 10 10 10 10 10 12 14 15 14 12 9 6 4 3 3 2 3 3 3 3 3 3 3 3 3 3 3 3 4 5 4 4 3 2 3 3 3 4 5 5 5
11 10 9 8 8 8 7 7 8 9 10 11 12 13 14 13 14 15 14 13 12 11 10 10 9 8 7 6 5 5 5 5 5 5 6 5 6 7 7 7 9 9 10 9 8 9 10 10 10 9 11 13 13 12 10 8 6 5 5 4 4 4 4 4 4 3 3 3 4 4 4 4 5 6 6 6 5 3 3 3 3 3 4 5 5
10 11 11 10 9 8 8 9 9 9 10 10 11 13 14 13 13 14 15 15 14 12 10 10 8 7 7 6 4 4 5 5 5 5 5 5 6 7 7 8 9 9 9 8 8 8 8 9 10 9 9 9 10 11 11 10 8 6 6 6 6 6 6 5 5 5 4 4 5 5 5 5 5 6 7 7 7 6 4 4 4 4 4 4 4
9 10 12 13 12 11 10 10 9 10 10 10 12 13 13 14 13 12 13 14 14 13 12 10 8 7 6 5 3 3 5 5 5 6 6 6 7 8 8 9 10 10 8 8 8 7 7 8 9 10 11 11 11 12 12 11 10 8 7 7 7 7 7 7 6 6 6 6 6 6 6 6 6 6 7 7 7 7 6 5 4 4 4 4 4
10 11 12 13 14 13 12 11 10 10 10 10 11 11 11 12 12 11 12 11 11 12 11 9 8 7 6 5 4 3 4 6 6 7 7 8 8 9 9 9 9 9 7 8 7 5 7 8 9 12 14 14 13 14 14 13 12 10 8 8 8 9 9 9 9 7 7 7 7 7 7 7 7 7 7 7 7 7 7 6 5 4 4 5 4
12 14 14 13 14 14 14 13 12 11 11 10 9 8 8 9 9 10 11 11 9 10 10 9 8 7 7 6 5 5 6 6 6 7 8 8 8 9 9 8 8 9 7 6 5 5 8 8 9 12 14 13 12 13 14 14 13 12 10 9 9 9 9 10 11 10 9 9 9 9 8 8 8 8 8 8 7 8 8 8 8 6 6 8 8
13 13 14 14 14 14 14 14 13 12 12 11 8 7 6 7 9 9 9 9 9 10 10 10 9 9 8 7 7 8 7 7 6 6 7 8 8 8 8 8 8 8 7 5 4 6 8 7 9 10 10 10 10 11 12 13 13 12 11 10 10 9 9 10 11 11 11 11 11 10 10 10 10 9 9 9 8 8 8 8 9 8 7 9 10
10 11 12 13 13 13 13 13 13 13 13 12 10 8 7 6 8 11 10 9 9 12 12 11 11 10 9 8 9 9 8 8 7 6 6 7 6 7 7 7 8 7 5 4 3 4 5 6 8 8 9 10 10 10 10 11 12 11 11 10 10 9 9 8 9 10 10 11 11 11 11 11 11 10 10 10 10 10 9 9 10 8 7 7 7
9 10 11 11 11 10 11 11 12 13 13 13 9 7 8 8 9 12 13 12 11 13 14 14 14 12 10 10 10 10 10 10 8 7 7 7 6 6 6 7 7 6 5 4 3 4 5 7 7 9 11 10 10 10 9 10 11 10 10 10 10 9 9 8 8 8 9 9 9 10 11 11 11 11 11 11 11 11 10 10 10 9 8 7 5
9 9 9 9 9 9 10 9 8 10 11 10 8 9 10 11 11 13 15 15 14 14 14 14 14 13 12 12 12 12 11 11 10 9 10 9 8 9 9 8 7 5 5 4 4 7 8 7 6 9 9 7 10 12 10 11 11 9 9 10 10 10 9 9 8 8 9 9 8 8 9 10 11 11 11 11 11 11 11 11 11 10 9 8 8
9 8 8 8 8 9 10 9 7 9 10 11 12 14 14 14 13 14 15 16 17 15 13 12 12 12 13 14 15 13 11 11 10 9 11 11 11 12 12 12 10 8 7 7 8 9 8 7 6 8 8 7 9 10 10 11 10 9 9 10 10 10 9 9 9 9 10 10 10 9 9 9 10 11 11 12 12 12 12 12 12 11 11 10 10
8 7 7 7 7 8 10 12 13 15 15 16 17 18 17 16 15 14 14 14 16 15 12 12 13 12 12 13 13 12 9 10 9 7 10 12 13 12 12 12 11 10 9 8 8 8 8 8 8 10 9 7 7 7 9 9 9 10 11 10 9 8 9 10 11 12 11 10 10 10 9 9 10 11 11 12 13 13 13 13 13 13 12 12 12
7 6 6 7 6 7 9 12 15 18 19 19 18 18 18 17 15 16 16 16 16 16 13 11 11 12 12 11 9 8 7 7 6 6 8 10 10 12 12 11 11 11 10 9 9 9 9 9 11 13 10 7 7 7 8 8 8 11 12 10 9 8 8 11 13 13 12 11 11 11 11 11 11 11 12 12 13 13 14 14 15 14 14 14 13
7 6 6 6 5 7 10 12 15 18 19 20 18 18 18 18 18 18 19 17 16 14 12 9 8 9 10 10 8 7 7 7 6 5 6 7 8 11 11 11 11 10 9 9 9 9 10 11 13 13 10 7 7 8 9 9 11 14 14 11 9 9 9 12 13 14 14 13 12 12 12 13 13 13 13 13 14 14 15 15 15 15 16 15 15
7 7 6 6 6 7 9 11 15 17 18 19 19 19 19 19 19 18 17 15 12 11 10 10 9 9 9 9 9 9 8 8 8 6 6 5 6 8 7 6 6 5 6 7 8 8 9 11 11 9 7 6 6 8 9 12 13 14 14 12 12 12 11 12 13 13 13 14 13 12 13 13 14 15 15 15 15 15 15 15 15 15 16 16 16
8 7 6 6 7 7 8 11 14 15 16 16 17 18 18 18 17 15 14 12 11 11 11 10 9 7 7 7 7 7 7 7 7 6 5 4 4 4 4 3 4 4 5 6 7 8 8 9 8 7 7 7 7 9 11 12 12 13 14 13 13 12 11 12 13 13 13 14 14 13 13 13 14 14 15 15 14 14 14 15 15 15 15 16 16
8 8 8 7 7 7 8 10 13 14 14 15 16 17 16 15 14 13 13 12 11 10 9 8 7 6 6 5 4 4 4 4 4 4 5 5 5 5 4 4 4 4 5 5 7 8 8 7 7 7 8 7 7 8 9 10 10 10 10 10 9 9 9 10 12 13 13 13 13 13 13 13 13 13 13 13 13 13 13 13 13 14 14 14 15
9 9 9 9 9 8 8 9 9 11 13 14 15 17 15 14 14 13 13 11 10 8 8 8 7 7 6 5 5 5 5 5 4 4 5 5 4 4 4 3 3 4 5 6 6 5 4 4 4 5 6 6 7 7 8 9 9 8 8 8 7 8 8 9 11 12 12 11 11 11 11 11 11 11 11 11 11 12 12 13 13 14 14 14 14
9 9 9 9 9 9 10 12 11 11 14 14 14 16 16 14 14 13 11 10 10 9 8 6 5 6 6 6 7 7 8 9 8 7 7 6 6 6 5 4 4 3 4 4 3 3 2 2 3 4 5 6 7 8 8 8 8 7 6 6 6 6 7 8 9 9 9 10 10 10 10 10 10 10 11 11 12 13 13 14 14 15 15 15 16
9 9 10 10 11 11 10 13 14 12 13 13 13 14 14 13 12 11 11 10 10 9 7 6 6 6 7 7 7 8 8 8 9 8 7 7 6 5 5 4 3 3 3 3 2 2 2 2 2 3 4 5 6 7 6 5 5 3 2 4 5 5 6 6 6 7 8 9 9 9 9 9 10 11 12 13 14 15 15 15 16 16 16 16 16
10 10 10 10 12 13 12 13 14 12 12 12 13 12 13 13 13 13 12 11 10 9 9 9 9 9 9 8 7 6 6 5 5 6 6 5 5 4 4 4 3 3 2 3 3 2 2 1 3 5 6 5 5 6 7 7 6 5 6 5 5 7 7 5 6 8 9 9 7 7 7 9 10 11 12 13 14 14 14 15 15 16 15 15 15
12 12 12 13 12 14 15 16 15 13 12 13 13 14 15 16 15 14 12 12 12 12 11 10 9 9 8 7 6 5 5 5 5 5 6 6 7 7 7 8 8 8 8 8 8 8 7 5 5 5 6 6 6 8 9 9 9 8 7 3 2 5 5 6 9 10 9 7 5 6 8 9 11 12 13 13 14 14 15 15 15 16 16 16 16
16 16 16 16 16 16 17 17 17 15 14 16 16 16 16 15 14 12 11 12 12 10 9 9 9 9 8 8 9 9 10 10 10 10 10 11 11 11 10 10 11 10 10 10 10 9 8 7 6 6 8 9 10 11 11 10 10 9 7 5 1 4 2 5 10 9 7 5 6 10 12 12 13 14 16 15 15 16 16 17 17 17 17 17 18
19 19 17 16 17 17 16 17 17 16 16 16 16 15 15 14 12 11 11 11 12 11 11 13 13 14 15 15 16 16 15 15 15 13 13 12 12 11 11 10 10 10 10 10 10 10 10 10 11 11 11 12 12 13 14 13 12 10 6 5 2 4 2 1 7 7 4 6 8 13 17 17 17 17 20 19 18 18 18 19 19 19 19 19 19
20 19 17 15 17 18 16 15 14 14 15 15 14 14 14 14 13 14 14 15 17 18 19 20 20 20 20 20 19 17 16 15 14 13 12 11 10 10 10 10 10 10 10 10 10 11 12 11 12 12 12 12 13 14 15 15 14 12 8 3 1 3 1 5 9 3 3 8 9 13 19 20 19 20 23 23 23 23 22 22 21 21 21 21 21
21 20 18 16 17 18 16 15 14 14 15 15 14 13 14 17 19 21 21 23 24 24 24 24 22 21 20 19 18 16 14 13 12 11 10 10 9 9 10 9 10 10 10 10 11 11 11 11 12 12 12 13 14 14 14 15 16 15 13 7 2 5 7 13 14 5 6 10 11 14 18 19 21 23 25 25 25 26 26 25 25 24 24 23 22
22 21 20 18 18 18 17 16 16 15 15 16 14 14 16 20 23 25 26 27 27 25 24 23 21 20 18 17 16 14 12 10 10 9 9 9 9 9 9 10 10 10 11 11 11 11 12 12 13 13 13 14 13 13 14 15 15 14 14 12 8 7 9 13 15 12 14 16 15 17 17 17 23 26 26 26 27 27 28 28 28 27 26 25 24
24 23 22 21 20 19 18 17 17 17 17 17 16 17 21 24 25 26 26 25 26 25 23 21 19 17 16 14 13 12 10 9 9 8 8 8 9 9 9 10 10 11 12 11 12 12 13 13 13 13 14 14 13 14 15 14 13 13 13 12 10 8 9 11 13 17 21 23 22 19 18 21 25 27 27 28 29 29 29 30 29 28 28 27 26
26 25 24 23 22 21 19 19 19 19 20 20 21 23 25 26 26 26 25 23 22 22 21 18 17 15 14 13 11 10 9 8 7 7 7 8 8 9 9 10 10 11 11 11 12 13 13 13 13 13 13 14 15 15 15 15 14 14 13 12 11 11 11 12 12 15 19 25 28 24 23 26 27 26 27 28 29 30 30 30 29 28 28 27 27
27 27 27 25 24 23 21 20 20 21 23 26 26 27 26 25 25 24 23 22 20 19 18 16 15 13 11 11 9 8 7 6 6 6 6 7 7 8 9 9 9 10 10 11 11 11 11 12 12 13 13 14 15 15 15 15 15 15 15 14 14 13 13 13 14 16 17 22 27 27 29 30 30 28 27 28 29 29 29 29 29 28 28 28 29
29 29 28 27 25 24 22 21 22 24 25 26 27 27 26 25 24 22 20 20 19 17 16 15 14 12 10 9 8 7 6 6 5 5 6 6 7 7 8 8 9 9 10 10 10 11 12 13 13 14 15 15 15 15 16 16 16 16 16 16 16 16 16 16 16 17 18 19 22 26 29 30 32 32 29 28 29 29 28 29 29 28 28 29 31
30 30 29 28 27 26 24 24 25 26 26 25 26 26 26 24 22 19 17 16 16 15 14 14 13 11 9 8 7 6 6 5 5 5 5 6 6 7 7 8 9 9 10 11 12 13 14 15 16 16 17 17 17 17 17 17 17 17 17 17 17 17 17 17 17 18 19 19 22 26 28 28 32 33 32 31 31 30 30 29 27 25 25 27 30
Wind_Direction
176 168 162 163 154 155 148 143 136 132 127 127 124 124 122 113 101 93 95 90 78 68 67 61 62 67 74 76 80 86 83 82 82 80 76 68 62 54 48 44 37 33 32 33 35 39 40 39 38 41 49 58 65 68 71 74 76 76 76 76 78 76 73 71 69 68 67 65 63 59 52 44 42 40 43 49 53 56 54 51 49 46 48 50 44
203 177 166 166 159 160 151 148 141 137 129 126 127 122 118 113 104 96 98 94 80 69 66 63 64 68 76 81 84 89 89 87 86 81 76 72 66 58 50 44 41 39 36 38 42 41 39 36 33 33 40 52 61 66 68 70 74 76 76 75 75 75 75 76 74 68 64 61 59 59 53 40 38 39 37 42 48 48 46 48 49 53 54 49 43
226 180 169 170 163 166 156 152 147 146 138 133 135 125 120 112 105 94 91 87 74 65 61 62 60 63 78 85 91 96 94 91 87 79 72 72 66 60 52 45 45 44 41 40 40 35 30 26 22 22 29 41 53 63 67 67 69 71 75 76 76 75 74 72 70 66 63 61 55 52 48 38 37 41 36 35 41 42 38 37 41 48 51 48 44
201 183 169 172 167 171 161 156 153 154 149 141 143 134 128 117 109 98 88 78 65 64 63 64 51 54 77 81 91 96 93 88 81 73 66 65 63 59 50 46 44 42 44 38 30 23 16 11 8 8 18 32 42 52 58 62 65 66 70 74 77 76 74 69 68 67 65 61 57 50 39 34 38 40 36 34 35 33 28 23 24 31 35 40 42
174 169 165 173 168 176 169 162 159 158 157 149 149 145 138 126 118 107 91 79 63 60 68 68 49 57 88 80 93 97 91 84 74 67 60 56 56 56 50 49 44 42 39 25 20 12 3 357 356 359 9 24 36 44 45 49 52 58 64 67 71 71 71 69 69 72 71 62 53 40 28 27 35 40 36 32 32 26 18 11 4 9 15 21 28
162 156 162 175 170 176 178 169 163 161 159 156 156 154 150 138 128 113 93 79 60 64 80 66 48 62 97 100 103 101 93 84 72 62 53 45 47 54 58 55 45 44 28 10 9 359 350 347 348 354 4 15 25 35 36 36 37 44 53 60 63 59 59 59 66 77 83 73 55 28 18 22 27 36 29 20 21 14 5 358 348 342 347 351 355
158 165 155 176 174 176 184 176 168 168 164 166 164 162 165 153 144 122 95 75 59 77 94 71 44 53 87 107 106 102 95 83 68 55 44 36 43 54 64 67 59 57 31 358 349 345 343 342 346 349 356 3 6 13 18 21 21 28 36 49 57 53 51 47 56 76 95 92 80 39 16 20 21 28 17 6 7 3 358 350 341 325 312 314 317
145 142 107 171 174 178 186 184 174 175 172 173 172 169 174 163 155 135 101 75 66 89 103 91 53 46 73 96 104 103 90 73 59 47 39 37 51 58 59 74 70 55 2 334 337 347 349 346 344 344 349 353 354 358 3 6 8 14 22 33 42 45 47 50 58 80 95 100 105 83 11 18 17 25 12 1 4 1 357 347 340 328 306 302 298
138 140 189 168 169 181 187 190 182 182 181 179 178 174 177 173 166 151 116 77 72 96 108 104 75 52 63 88 104 101 81 64 53 46 41 41 60 70 52 46 14 334 338 338 348 0 0 356 347 342 343 347 352 355 359 2 6 12 22 28 31 38 43 70 92 94 89 83 106 102 323 16 14 25 20 6 7 358 354 354 351 347 331 316 305
137 142 190 181 175 193 191 194 189 189 191 186 184 178 183 186 177 163 133 72 71 99 110 110 94 56 59 90 103 91 73 55 48 47 44 46 64 77 57 32 355 337 347 352 1 6 4 2 357 349 344 347 353 356 3 7 18 29 39 44 42 49 55 92 125 121 115 117 106 97 315 329 355 33 38 25 26 10 2 16 19 12 9 4 351
129 149 193 197 193 197 191 194 194 193 193 193 193 188 188 188 183 172 145 54 71 103 115 125 114 58 56 84 93 81 67 51 45 44 42 48 60 67 50 23 3 358 7 10 9 9 6 4 4 0 352 350 357 1 9 18 41 57 63 68 69 72 69 88 125 129 122 123 114 112 258 309 297 84 59 44 44 15 358 19 33 5 346 357 359
133 170 204 207 202 192 187 192 195 196 195 198 201 203 200 188 193 197 155 45 80 109 124 145 129 62 57 73 78 70 61 48 46 44 40 46 56 58 36 15 7 7 13 13 9 9 6 6 6 5 359 353 1 9 18 38 66 75 79 84 83 84 77 83 95 90 102 116 119 127 198 342 312 164 118 76 59 307 330 340 344 321 322 332 335
156 180 209 216 213 199 188 191 194 197 199 204 209 214 218 212 224 238 213 247 191 133 142 182 213 62 57 63 65 58 52 44 43 43 42 42 51 53 32 19 12 9 12 12 10 8 6 7 8 8 5 357 1 12 27 58 82 85 85 86 83 84 85 90 90 89 101 112 119 142 201 167 199 182 189 206 255 288 311 320 322 319 324 330 329
172 180 205 219 212 201 190 189 194 196 198 204 211 217 225 229 234 234 224 229 196 142 159 193 227 78 56 52 55 55 48 40 34 36 43 40 43 45 31 19 13 11 15 16 13 8 5 7 10 11 10 4 1 8 34 73 93 94 88 83 84 84 91 108 105 108 113 114 136 178 189 173 181 199 226 241 264 285 298 311 320 319 321 326 325
185 190 209 222 206 202 194 190 195 195 196 200 206 212 216 219 222 222 218 227 209 172 187 185 202 238 54 49 58 63 53 43 24 23 34 32 31 33 22 9 10 16 16 17 14 7 6 7 10 14 15 12 5 3 25 71 95 97 92 87 90 93 101 129 125 119 115 125 160 182 177 191 193 225 269 280 275 285 303 311 314 316 318 321 322
191 198 211 225 214 205 200 196 199 198 196 198 204 206 204 207 212 215 215 220 216 206 209 194 188 196 98 117 130 155 60 29 4 7 13 21 22 12 8 2 5 12 9 15 15 8 7 7 10 15 18 19 12 5 9 45 88 93 94 91 86 92 89 68 86 101 112 152 183 176 171 180 179 242 354 357 312 289 305 314 315 321 321 321 324
187 197 207 223 223 213 210 203 202 202 199 199 203 205 202 204 209 211 212 216 217 216 218 206 198 211 211 202 222 242 242 275 311 350 350 359 6 355 359 359 359 355 358 10 11 6 6 5 9 14 18 23 21 12 2 14 51 77 87 88 79 57 44 27 17 101 142 199 201 157 192 194 207 304 26 355 334 317 313 319 318 323 323 322 326
191 196 199 213 225 221 218 212 208 207 204 202 202 204 205 206 210 213 214 216 218 218 217 216 223 233 237 250 269 262 248 251 277 327 322 317 330 339 339 338 339 337 348 2 3 0 1 1 6 12 16 21 25 20 5 2 11 34 63 64 62 35 15 1 349 19 237 283 345 360 237 211 235 257 313 337 1 351 318 321 324 325 323 324 328
201 197 195 203 215 221 225 220 215 213 209 207 203 205 209 211 214 216 218 219 221 223 224 230 241 248 258 278 280 264 248 249 272 298 295 298 307 316 317 316 321 326 342 355 360 2 2 1 4 11 16 19 23 23 10 350 345 349 356 12 19 12 359 349 348 332 331 348 349 342 326 299 275 276 302 331 345 336 320 322 326 326 324 328 332
215 212 203 202 208 212 223 227 225 221 216 211 206 206 211 217 219 219 221 221 225 232 236 241 248 260 274 281 277 263 250 245 253 267 273 283 291 298 302 303 309 315 330 347 0 9 6 1 3 10 18 22 21 21 18 357 330 322 319 325 331 339 345 346 349 343 347 344 332 335 329 314 301 300 308 307 305 317 320 319 323 324 325 329 333
225 228 221 216 215 209 211 221 228 227 220 210 206 208 211 218 222 223 225 225 228 233 239 244 250 265 278 276 272 264 248 240 247 261 267 274 284 291 294 296 302 307 321 339 353 1 0 358 358 2 15 24 22 20 22 12 347 320 308 307 310 316 324 335 339 337 339 331 327 327 319 316 312 312 312 310 311 306 306 316 324 326 327 330 335
229 233 234 232 228 221 213 212 219 224 221 207 206 213 213 216 222 225 227 229 230 232 237 244 254 265 272 268 263 260 249 243 252 265 273 279 288 292 297 300 304 308 321 335 338 343 353 356 352 351 360 9 15 20 21 18 7 343 318 307 306 308 311 319 326 324 321 321 323 320 315 313 311 312 312 316 318 314 310 314 325 332 330 333 340
244 240 237 237 236 235 228 220 217 219 223 211 209 220 218 215 221 224 224 227 227 230 237 244 256 260 258 257 254 261 256 258 265 272 281 289 293 293 297 300 303 307 319 328 322 329 354 358 351 346 349 351 358 10 13 12 11 360 341 319 309 307 308 310 316 318 313 313 314 314 313 310 308 308 307 311 315 319 317 313 323 333 328 331 341
251 248 241 239 239 239 238 234 227 219 223 219 212 219 218 214 221 223 218 221 224 227 233 238 247 250 250 254 253 256 255 265 274 279 284 288 292 291 291 292 299 307 317 324 318 327 350 357 352 343 346 351 355 359 4 8 8 3 356 342 323 313 310 309 311 314 311 310 310 311 311 310 308 306 306 306 309 313 314 315 315 319 330 332 331
248 251 249 245 240 240 240 239 237 226 221 222 210 205 208 206 213 222 219 218 221 223 223 222 227 233 236 236 235 238 247 259 266 274 280 279 283 284 283 283 292 302 309 319 316 314 329 343 349 346 348 351 351 351 355 3 5 3 360 355 347 331 320 313 309 309 310 309 309 310 310 310 309 307 307 307 309 310 312 315 312 319 342 345 340
247 251 251 249 243 241 241 241 242 233 225 218 197 182 188 190 196 210 221 219 220 223 218 216 220 223 222 218 219 225 231 241 251 262 273 277 285 290 287 285 289 296 302 304 295 306 322 333 341 344 342 337 339 345 349 357 1 3 3 0 357 350 339 328 317 311 309 310 310 311 311 310 309 308 307 306 307 308 310 313 314 324 338 345 345
245 244 244 246 245 243 241 240 239 234 228 213 190 174 172 174 186 195 205 213 219 223 220 217 217 217 217 219 222 225 226 228 233 242 255 268 284 295 295 292 287 288 292 287 287 308 315 317 324 320 311 314 325 337 346 353 355 354 359 2 359 355 352 346 335 323 316 312 310 309 310 310 310 309 307 306 305 305 307 309 313 319 321 326 336
240 238 239 239 237 237 237 237 236 231 223 209 187 159 165 178 187 192 196 201 211 217 220 218 215 217 217 220 222 222 226 223 221 227 234 242 249 258 271 281 277 278 289 297 300 291 286 296 302 294 297 305 309 321 339 345 343 341 348 358 358 356 354 351 347 339 329 324 317 307 303 302 304 305 305 304 303 302 302 303 306 309 308 298 294
240 237 237 236 230 227 226 226 230 222 206 190 170 160 179 189 192 199 198 199 210 215 221 221 218 224 225 228 230 228 229 225 224 234 236 231 230 235 239 248 256 267 277 266 253 261 269 273 268 277 292 306 311 321 333 336 333 331 343 353 355 355 352 350 349 346 341 337 332 318 304 296 293 293 295 298 298 298 298 297 298 298 299 290 272
238 236 234 231 224 219 213 196 176 176 172 168 174 181 191 193 196 207 201 201 212 214 218 221 217 223 226 228 232 234 235 232 233 249 252 235 226 230 230 230 235 241 243 239 243 253 265 270 266 274 286 299 308 317 325 330 328 327 342 349 347 349 350 352 353 352 349 344 341 333 321 309 299 293 289 289 290 291 292 292 293 293 292 287 276
232 229 227 223 217 210 201 186 170 165 171 180 188 191 194 195 197 202 202 206 211 210 216 222 219 220 223 227 232 238 243 242 238 248 254 237 227 233 236 237 239 243 246 248 251 252 263 277 281 282 289 298 296 303 311 313 316 325 337 339 335 339 346 351 353 352 349 345 341 336 330 324 316 310 303 297 293 290 289 289 289 290 289 286 282
231 224 221 216 208 197 190 185 179 175 181 190 193 195 196 196 198 200 203 209 211 211 218 225 227 228 233 239 245 257 270 273 257 244 252 246 240 243 243 246 245 241 245 250 251 254 265 277 282 282 278 273 274 284 292 291 304 317 323 326 323 328 341 346 345 342 339 338 336 334 331 328 326 324 320 313 308 302 297 293 289 288 286 285 283
235 224 222 217 200 190 189 185 184 185 186 189 193 195 198 197 200 204 201 204 211 216 223 229 233 239 244 246 247 257 272 282 277 258 251 245 246 251 249 248 242 232 237 251 255 261 272 282 288 287 274 261 273 282 288 295 303 307 310 316 314 315 329 337 338 332 328 329 330 330 328 326 327 326 321 317 315 311 306 301 295 290 286 283 282
232 225 222 217 202 187 190 187 185 189 188 190 195 195 198 197 199 204 199 201 212 219 228 234 237 241 242 242 241 243 246 251 256 251 244 239 242 253 253 248 250 241 238 253 263 270 281 289 294 293 283 275 279 283 287 291 295 303 310 313 309 310 319 326 327 323 319 321 322 323 322 321 321 320 319 317 317 314 310 307 302 296 291 287 283
226 220 212 209 208 191 186 182 179 187 189 189 193 193 196 195 197 202 196 199 211 218 230 234 233 228 217 221 229 234 239 241 243 238 230 229 227 238 252 262 279 266 247 254 266 279 293 298 303 308 303 290 274 273 276 279 288 300 306 305 301 305 317 319 317 316 314 314 316 318 316 317 318 319 319 319 318 316 312 309 305 302 298 294 289
215 211 204 194 191 187 181 173 175 184 185 184 187 189 193 193 196 199 199 209 216 216 217 209 197 186 182 189 194 202 216 227 235 226 213 212 218 232 255 267 269 261 253 260 267 279 289 292 298 302 301 295 283 278 278 285 294 297 301 302 299 308 318 314 312 314 315 314 315 315 316 320 321 322 322 320 320 318 315 313 309 307 304 301 297
208 204 199 186 174 174 163 151 164 172 169 176 183 184 183 185 194 201 208 212 205 194 184 176 173 166 155 151 154 157 151 138 139 157 173 184 194 205 214 217 230 241 242 248 254 263 273 275 281 288 293 294 292 292 294 299 299 297 301 300 301 309 309 306 310 313 315 318 319 317 322 328 327 327 326 323 322 320 318 315 312 309 307 306 305
199 191 186 180 165 164 161 152 156 164 167 173 179 184 188 192 198 201 200 189 174 170 167 165 164 156 144 139 142 142 136 130 131 136 143 147 150 157 162 168 179 193 202 209 217 219 229 262 283 297 304 304 304 307 310 308 300 294 301 310 313 310 310 316 317 318 325 331 330 327 329 333 332 331 328 326 325 324 321 318 315 311 308 306 304
187 180 174 168 159 158 163 160 160 167 175 176 177 185 189 187 183 174 166 161 160 162 160 154 147 143 139 136 136 134 132 133 134 139 144 147 151 156 160 167 174 183 197 203 208 223 247 267 297 338 342 337 339 342 341 336 321 319 30 24 17 15 2 353 344 347 351 349 341 331 336 341 340 339 337 337 337 335 333 330 328 325 321 316 311
173 169 164 160 164 163 158 154 157 167 170 167 169 169 162 158 155 153 153 150 152 154 151 147 144 142 139 138 138 132 129 134 143 153 156 155 152 150 148 139 125 123 127 126 117 100 79 59 62 56 42 26 21 21 20 20 14 35 66 51 31 34 23 16 19 12 360 355 346 330 348 360 353 354 353 353 353 350 350 349 347 346 343 340 335
162 158 157 154 156 157 157 155 156 166 167 160 158 156 154 153 154 158 160 155 153 154 154 154 155 153 149 149 146 138 136 135 135 138 136 129 119 112 110 106 100 97 95 92 86 82 75 69 74 74 57 37 29 29 27 27 27 48 80 97 6 18 23 26 26 19 8 7 358 337 352 4 360 1 2 1 0 358 359 358 356 356 354 353 352
158 160 162 161 163 165 169 168 164 165 165 162 160 160 161 162 165 170 167 163 161 164 166 163 165 164 156 148 137 130 126 120 114 112 112 110 106 102 100 99 96 91 87 84 79 74 69 60 49 39 32 26 22 20 16 17 26 45 84 132 30 360 37 50 35 29 17 3 348 333 335 345 348 352 352 351 353 354 356 356 355 354 353 353 353
164 172 175 175 177 175 177 176 172 169 166 166 166 166 167 168 174 171 161 159 155 152 148 142 142 141 135 130 125 121 117 113 109 106 106 105 103 100 96 91 86 79 74 72 69 61 56 49 38 27 21 21 19 15 11 13 22 35 68 131 76 358 198 102 29 33 4 340 338 328 327 334 338 343 344 342 344 345 346 348 348 348 349 349 348
171 178 180 177 172 171 176 177 175 172 168 167 166 168 167 163 160 153 147 143 137 134 132 128 128 128 125 122 119 116 114 111 109 106 104 100 94 87 79 72 67 62 56 53 51 48 45 42 36 29 20 16 16 16 14 12 16 23 35 92 111 5 341 322 343 353 291 326 333 326 329 333 334 340 342 341 342 341 340 342 342 342 343 343 343
174 176 177 172 167 169 173 173 171 169 165 164 166 168 165 155 148 144 142 138 133 132 130 127 127 126 123 120 117 114 112 108 105 99 91 83 76 69 62 56 51 47 41 37 38 40 38 34 31 26 20 19 19 18 17 16 17 20 28 44 38 1 351 335 335 302 263 312 326 328 332 330 329 336 339 338 340 339 338 338 338 339 339 339 339
174 176 177 174 170 171 171 169 169 166 166 168 169 167 158 150 146 144 143 139 135 134 132 129 129 127 123 120 115 111 106 98 92 84 76 69 62 57 50 43 39 35 32 30 32 32 29 28 27 22 21 22 19 15 16 21 21 20 27 36 37 10 346 338 337 321 306 313 323 332 333 326 327 333 336 336 337 337 337 337 338 338 338 337 338
173 174 177 176 175 174 173 172 172 172 173 172 168 162 154 150 148 146 144 141 138 136 133 131 129 126 122 118 112 106 99 89 82 76 67 59 50 45 39 33 29 27 26 22 21 23 22 23 22 19 19 17 12 10 15 17 14 17 23 25 25 15 355 347 340 330 323 319 322 331 330 325 328 332 335 336 335 334 335 336 337 337 337 337 338
173 175 178 179 179 179 179 177 177 178 174 168 163 160 155 152 150 147 144 143 140 136 135 134 130 127 122 116 109 103 95 86 78 69 58 51 43 37 33 28 23 21 19 15 17 20 19 18 16 14 13 11 8 9 11 9 6 9 11 7 3 0 352 346 337 333 329 323 324 328 327 325 328 331 334 334 333 335 335 335 336 337 338 339 340
174 177 179 181 181 183 184 182 180 177 170 164 160 158 155 153 152 150 146 144 142 138 138 137 131 128 124 116 110 103 96 87 77 66 55 48 40 34 30 22 18 17 14 13 15 15 13 11 11 10 10 10 10 10 8 6 6 3 0 357 354 349 345 341 335 332 331 326 324 326 327 327 326 328 333 332 332 334 334 335 337 339 341 341 341
177 179 180 182 184 186 186 183 178 173 167 160 156 156 156 155 153 152 150 147 145 144 142 139 134 131 126 119 115 109 102 95 82 70 58 49 40 31 23 15 13 14 13 13 13 12 12 12 13 13 13 13 11 9 7 6 4 0 357 354 351 348 346 344 340 336 334 330 324 325 329 330 327 329 335 334 333 334 336 340 343 343 343 342 341
179 180 181 183 186 188 186 181 175 169 164 159 157 157 156 156 155 155 155 153 150 148 146 142 138 136 131 125 124 118 110 102 86 74 59 48 35 23 17 12 12 12 11 12 12 12 13 13 12 11 9 8 7 5 4 2 358 356 354 351 350 349 347 345 343 340 337 334 328 327 331 331 327 329 335 335 335 338 342 345 347 345 342 339 339
Height
1559 1559 1562 1562 1564 1565 1566 1566 1567 1568 1569 1570 1570 1571 1571 1572 1572 1572 1573 1573 1574 1574 1574 1574 1574 1574 1574 1574 1575 1575 1575 1575 1576 1576 1576 1576 1576 1575 1575 1574 1574 1574 1573 1573 1573 1573 1573 1573 1573 1573 1573 1573 1573 1573 1573 1573 1573 1573 1573 1574 1574 1574 1574 1574 1574 1574 1574 1574 1574 1574 1575 1574 1574 1574 1574 1574 1574 1574 1574 1574 1574 1574 1574 1574 1574
1559 1560 1561 1562 1564 1565 1566 1567 1568 1569 1569 1570 1571 1572 1572 1572 1573 1573 1574 1574 1575 1575 1575 1575 1575 1575 1575 1575 1576 1576 1576 1576 1577 1577 1577 1577 1577 1576 1576 1576 1575 1575 1574 1574 1574 1574 1574 1574 1574 1574 1574 1574 1573 1573 1573 1574 1574 1574 1574 1574 1575 1575 1575 1575 1575 1575 1575 1575 1575 1575 1575 1575 1575 1575 1575 1575 1575 1575 1575 1575 1575 1575 1574 1574 1574
1559 1560 1561 1563 1564 1565 1566 1567 1569 1569 1570 1571 1571 1572 1573 1574 1574 1574 1575 1575 1575 1575 1576 1575 1575 1575 1576 1576 1577 1577 1577 1577 1578 1578 1578 1578 1577 1577 1577 1577 1576 1576 1575 1575 1575 1574 1574 1574 1574 1574 1574 1574 1574 1574 1574 1574 1574 1575 1575 1575 1575 1575 1576 1576 1576 1576 1576 1576 1576 1576 1576 1576 1576 1576 1576 1576 1576 1576 1575 1575 1575 1575 1575 1575 1575
1559 1560 1562 1563 1564 1565 1567 1567 1569 1570 1571 1571 1572 1573 1573 1574 1575 1575 1575 1576 1576 1576 1576 1576 1576 1576 1577 1577 1578 1578 1578 1578 1579 1579 1579 1578 1578 1578 1578 1577 1577 1576 1576 1575 1575 1575 1575 1575 1575 1574 1574 1574 1574 1574 1574 1575 1575 1575 1575 1576 1576 1576 1576 1577 1577 1577 1577 1577 1577 1577 1577 1577 1577 1577 1577 1577 1576 1576 1576 1576 1576 1576 1576 1576 1576
1560 1560 1562 1563 1565 1566 1567 1568 1569 1570 1571 1572 1572 1573 1574 1574 1575 1576 1576 1576 1576 1577 1577 1577 1577 1577 1578 1578 1579 1579 1579 1579 1579 1579 1579 1579 1578 1578 1578 1578 1577 1577 1576 1576 1576 1576 1575 1575 1575 1574 1574 1574 1575 1575 1575 1575 1575 1576 1576 1576 1576 1577 1577 1577 1578 1578 1578 1577 1577 1577 1578 1578 1577 1578 1577 1577 1577 1577 1577 1576 1576 1576 1576 1576 1576
1560 1561 1563 1563 1565 1566 1567 1568 1569 1570 1571 1572 1573 1573 1574 1575 1575 1576 1576 1577 1577 1577 1578 1578 1578 1578 1578 1579 1580 1579 1580 1580 1580 1580 1579 1579 1579 1579 1578 1578 1578 1578 1577 1576 1577 1576 1576 1575 1575 1575 1575 1575 1575 1575 1575 1575 1575 1576 1576 1576 1577 1577 1578 1578 1578 1578 1578 1578 1578 1578 1578 1578 1578 1578 1578 1578 1578 1577 1577 1577 1577 1576 1576 1576 1576
1561 1562 1563 1563 1565 1566 1567 1568 1569 1570 1571 1572 1572 1573 1574 1575 1575 1576 1576 1577 1577 1578 1578 1578 1578 1579 1579 1580 1580 1580 1580 1580 1580 1580 1580 1579 1579 1579 1579 1579 1578 1578 1578 1577 1577 1577 1577 1576 1575 1575 1575 1575 1575 1575 1575 1575 1575 1575 1576 1576 1577 1577 1578 1578 1579 1579 1579 1579 1579 1579 1578 1578 1578 1578 1578 1578 1578 1578 1578 1577 1577 1577 1576 1576 1576
1562 1563 1563 1564 1565 1566 1568 1569 1570 1570 1571 1572 1572 1573 1574 1575 1575 1576 1576 1577 1577 1578 1578 1579 1579 1579 1580 1580 1580 1580 1580 1580 1580 1580 1580 1579 1579 1579 1579 1579 1579 1578 1578 1578 1578 1578 1577 1576 1576 1576 1575 1575 1575 1575 1575 1575 1575 1576 1576 1576 1577 1577 1578 1578 1578 1579 1579 1579 1580 1580 1578 1578 1579 1579 1579 1579 1579 1578 1578 1578 1577 1577 1576 1576 1576
1563 1564 1563 1564 1565 1567 1568 1569 1570 1570 1571 1572 1572 1573 1574 1575 1575 1576 1576 1577 1578 1578 1579 1579 1579 1580 1580 1580 1581 1581 1581 1581 1581 1580 1580 1579 1579 1579 1579 1579 1579 1579 1579 1578 1578 1578 1577 1577 1576 1576 1576 1576 1576 1576 1576 1576 1576 1576 1576 1577 1577 1577 1578 1578 1578 1578 1579 1579 1580 1580 1579 1579 1579 1579 1580 1579 1579 1578 1578 1578 1577 1577 1577 1576 1576
1563 1564 1564 1564 1565 1567 1568 1569 1570 1571 1571 1572 1573 1573 1574 1575 1575 1576 1577 1577 1578 1578 1579 1579 1580 1580 1580 1580 1581 1581 1581 1581 1581 1581 1580 1580 1580 1580 1580 1579 1579 1579 1579 1579 1578 1578 1578 1577 1577 1576 1576 1576 1576 1576 1576 1576 1576 1576 1577 1577 1577 1577 1578 1578 1578 1578 1578 1579 1580 1580 1579 1579 1580 1580 1580 1580 1580 1579 1578 1578 1578 1577 1577 1576 1576
1564 1564 1564 1565 1566 1566 1567 1569 1570 1571 1571 1572 1573 1573 1574 1575 1575 1576 1577 1577 1578 1579 1579 1580 1580 1580 1581 1581 1581 1581 1581 1581 1581 1581 1581 1581 1580 1580 1580 1580 1580 1580 1580 1580 1579 1579 1578 1578 1577 1577 1576 1576 1576 1576 1576 1576 1576 1576 1577 1577 1577 1577 1577 1578 1578 1578 1578 1579 1580 1579 1579 1579 1580 1580 1580 1580 1580 1579 1578 1578 1578 1577 1577 1577 1576
1564 1564 1564 1565 1565 1566 1567 1568 1569 1571 1571 1572 1573 1574 1574 1575 1576 1576 1577 1578 1578 1579 1579 1580 1580 1581 1581 1581 1581 1582 1582 1582 1582 1582 1582 1581 1581 1581 1581 1581 1581 1581 1581 1581 1580 1580 1579 1578 1578 1577 1577 1577 1576 1576 1576 1576 1576 1577 1577 1577 1577 1578 1578 1578 1578 1578 1579 1580 1580 1579 1579 1580 1580 1580 1580 1580 1579 1579 1578 1578 1578 1577 1577 1576 1576
1563 1563 1564 1564 1565 1565 1566 1568 1569 1570 1571 1572 1573 1574 1575 1575 1576 1577 1577 1578 1578 1579 1579 1580 1580 1581 1581 1582 1582 1582 1582 1582 1582 1582 1582 1582 1582 1582 1582 1582 1582 1582 1582 1582 1581 1581 1580 1579 1578 1578 1577 1577 1577 1577 1577 1577 1577 1577 1578 1578 1578 1578 1578 1578 1578 1579 1579 1580 1580 1579 1579 1579 1580 1580 1579 1579 1579 1578 1578 1578 1578 1577 1577 1577 1576
1563 1563 1563 1563 1564 1565 1566 1567 1568 1570 1571 1572 1573 1573 1574 1575 1576 1577 1577 1578 1578 1579 1579 1580 1580 1581 1581 1582 1582 1582 1582 1582 1583 1583 1583 1583 1583 1583 1583 1583 1583 1583 1582 1583 1582 1581 1581 1580 1579 1579 1578 1578 1578 1578 1578 1578 1578 1578 1578 1579 1579 1579 1579 1579 1578 1579 1579 1580 1579 1578 1579 1579 1579 1579 1579 1579 1578 1578 1578 1578 1577 1577 1577 1576 1576
1563 1563 1563 1563 1564 1565 1565 1567 1567 1569 1570 1571 1572 1573 1574 1575 1576 1576 1577 1578 1578 1579 1579 1580 1580 1581 1581 1582 1582 1582 1583 1583 1583 1583 1584 1584 1584 1584 1584 1583 1583 1584 1583 1583 1583 1582 1581 1580 1580 1580 1579 1579 1579 1579 1579 1579 1579 1579 1579 1579 1579 1579 1579 1579 1578 1579 1579 1579 1578 1578 1579 1579 1579 1579 1579 1579 1578 1578 1578 1578 1578 1577 1577 1576 1576
1563 1563 1563 1563 1564 1565 1565 1566 1567 1568 1569 1571 1572 1573 1574 1574 1575 1576 1577 1577 1578 1578 1579 1579 1580 1580 1581 1582 1582 1582 1583 1583 1583 1584 1584 1584 1584 1584 1584 1584 1584 1584 1584 1584 1584 1583 1582 1581 1581 1580 1580 1580 1580 1580 1580 1580 1580 1580 1580 1580 1580 1580 1580 1579 1579 1579 1579 1578 1577 1578 1579 1579 1579 1579 1579 1579 1578 1578 1578 1578 1578 1577 1577 1576 1576
1563 1563 1563 1564 1564 1565 1565 1566 1567 1568 1569 1570 1571 1572 1573 1574 1575 1575 1576 1577 1578 1578 1579 1579 1580 1580 1581 1581 1582 1582 1583 1583 1583 1584 1584 1584 1585 1585 1585 1584 1584 1584 1584 1584 1584 1583 1583 1582 1582 1581 1581 1581 1581 1581 1581 1581 1581 1581 1581 1581 1581 1581 1580 1580 1580 1579 1579 1578 1578 1579 1579 1579 1579 1579 1579 1579 1578 1578 1578 1578 1578 1577 1577 1577 1576
1563 1563 1564 1564 1564 1564 1565 1565 1566 1567 1568 1569 1571 1572 1572 1573 1574 1575 1576 1576 1577 1578 1578 1579 1579 1580 1581 1581 1582 1582 1583 1583 1583 1583 1584 1584 1584 1585 1585 1584 1584 1585 1585 1585 1584 1584 1583 1583 1583 1582 1582 1582 1582 1582 1582 1582 1582 1582 1582 1582 1582 1581 1581 1581 1580 1580 1579 1579 1580 1580 1579 1579 1579 1579 1579 1579 1578 1579 1578 1578 1578 1577 1577 1577 1577
1562 1563 1564 1564 1564 1564 1564 1565 1566 1566 1568 1569 1570 1571 1572 1573 1573 1574 1575 1576 1576 1577 1578 1578 1579 1580 1581 1581 1582 1582 1583 1583 1583 1583 1583 1584 1584 1584 1584 1584 1584 1584 1585 1585 1585 1584 1584 1583 1583 1583 1583 1583 1583 1583 1583 1583 1583 1583 1583 1583 1582 1582 1582 1581 1581 1581 1580 1581 1581 1580 1580 1580 1580 1579 1579 1579 1579 1579 1578 1578 1578 1578 1577 1577 1577
1561 1562 1563 1563 1564 1564 1564 1565 1565 1566 1567 1568 1569 1570 1571 1572 1573 1574 1574 1575 1576 1576 1577 1578 1579 1579 1580 1581 1581 1582 1582 1582 1582 1583 1583 1583 1583 1584 1584 1584 1584 1584 1584 1584 1584 1584 1584 1584 1584 1584 1584 1583 1583 1583 1583 1584 1584 1583 1583 1583 1583 1583 1582 1582 1582 1582 1581 1581 1581 1581 1581 1580 1580 1580 1580 1579 1579 1579 1579 1578 1578 1578 1578 1577 1577
1561 1561 1562 1562 1563 1563 1564 1565 1565 1566 1566 1567 1568 1569 1570 1571 1572 1573 1574 1575 1575 1576 1577 1578 1578 1579 1580 1580 1581 1581 1581 1582 1582 1582 1582 1582 1582 1583 1583 1583 1583 1583 1584 1584 1584 1584 1584 1584 1584 1584 1584 1584 1584 1584 1584 1584 1584 1584 1584 1584 1584 1584 1583 1583 1583 1582 1582 1581 1581 1581 1581 1581 1580 1580 1580 1580 1579 1579 1579 1579 1579 1578 1578 1578 1577
1560 1560 1561 1561 1562 1562 1563 1564 1565 1565 1566 1567 1568 1568 1569 1570 1571 1572 1573 1574 1575 1576 1577 1577 1578 1579 1580 1580 1581 1581 1581 1581 1581 1582 1582 1582 1582 1583 1583 1583 1583 1584 1584 1584 1584 1584 1584 1584 1584 1584 1584 1584 1584 1584 1584 1584 1584 1584 1584 1584 1584 1584 1584 1584 1583 1583 1582 1582 1582 1581 1581 1581 1581 1580 1580 1580 1580 1580 1579 1579 1579 1579 1578 1578 1578
1559 1560 1560 1560 1561 1561 1562 1563 1564 1565 1565 1566 1567 1567 1569 1570 1570 1571 1572 1573 1575 1576 1576 1577 1578 1578 1579 1580 1580 1580 1580 1580 1581 1581 1582 1582 1582 1583 1583 1583 1584 1584 1584 1584 1584 1584 1584 1584 1584 1584 1584 1584 1584 1584 1584 1584 1584 1584 1584 1584 1584 1584 1584 1584 1584 1583 1583 1582 1582 1582 1582 1581 1581 1581 1581 1580 1580 1580 1579 1579 1579 1579 1578 1578 1578
1558 1558 1559 1559 1560 1561 1561 1562 1563 1564 1565 1566 1567 1567 1568 1569 1570 1571 1572 1573 1574 1575 1576 1577 1577 1578 1579 1579 1580 1580 1580 1580 1581 1581 1582 1582 1582 1583 1583 1583 1583 1584 1584 1584 1584 1584 1584 1584 1584 1584 1584 1584 1584 1584 1584 1584 1584 1584 1584 1584 1584 1584 1584 1584 1584 1584 1583 1583 1583 1582 1582 1582 1581 1581 1581 1581 1580 1580 1580 1579 1579 1579 1578 1578 1578
1557 1557 1557 1558 1559 1559 1560 1561 1562 1563 1564 1565 1566 1567 1568 1569 1570 1571 1572 1573 1574 1575 1575 1576 1577 1577 1578 1579 1580 1580 1581 1581 1581 1582 1582 1582 1582 1583 1583 1583 1583 1584 1584 1584 1584 1584 1584 1584 1584 1584 1584 1584 1585 1585 1584 1584 1584 1584 1584 1584 1584 1584 1584 1584 1583 1584 1584 1583 1583 1583 1582 1582 1582 1581 1581 1581 1580 1580 1580 1580 1579 1579 1579 1578 1578
1556 1556 1557 1557 1558 1559 1559 1560 1561 1562 1563 1564 1566 1567 1568 1569 1570 1571 1572 1573 1574 1574 1575 1576 1576 1577 1577 1578 1579 1579 1580 1580 1581 1582 1582 1582 1582 1583 1583 1583 1583 1583 1584 1584 1584 1584 1584 1584 1584 1584 1584 1584 1584 1585 1584 1584 1584 1584 1584 1584 1583 1583 1583 1583 1583 1583 1583 1583 1583 1583 1583 1582 1582 1581 1581 1581 1580 1580 1580 1580 1579 1579 1578 1578 1578
1555 1555 1556 1556 1557 1558 1559 1559 1560 1562 1562 1564 1565 1566 1568 1569 1570 1571 1571 1572 1573 1573 1574 1574 1575 1576 1576 1577 1578 1579 1580 1580 1581 1581 1582 1582 1582 1582 1582 1583 1583 1583 1583 1584 1584 1584 1584 1584 1584 1584 1584 1584 1584 1584 1584 1584 1584 1584 1584 1583 1583 1583 1582 1582 1582 1582 1582 1583 1583 1582 1582 1582 1581 1581 1581 1580 1580 1580 1579 1579 1579 1578 1578 1578 1578
1554 1554 1554 1555 1556 1557 1558 1558 1559 1561 1562 1563 1564 1566 1568 1569 1569 1570 1570 1571 1571 1572 1573 1573 1574 1575 1576 1577 1577 1578 1579 1580 1580 1581 1581 1582 1582 1582 1582 1582 1583 1583 1583 1583 1584 1584 1584 1584 1584 1584 1583 1584 1584 1584 1584 1584 1584 1584 1583 1583 1582 1582 1582 1582 1581 1581 1581 1581 1582 1581 1581 1581 1581 1580 1580 1580 1579 1579 1579 1578 1578 1578 1578 1577 1577
1553 1553 1554 1554 1555 1556 1556 1557 1559 1560 1561 1563 1564 1566 1567 1567 1568 1568 1569 1570 1570 1571 1572 1573 1574 1574 1575 1576 1576 1577 1578 1579 1580 1580 1580 1581 1582 1582 1582 1582 1582 1582 1583 1583 1583 1583 1584 1584 1584 1583 1583 1583 1582 1583 1583 1583 1583 1583 1583 1582 1582 1582 1581 1581 1581 1581 1580 1580 1580 1580 1580 1579 1579 1579 1579 1579 1578 1578 1578 1578 1577 1577 1577 1576 1576
1552 1552 1553 1553 1554 1554 1555 1556 1557 1559 1560 1562 1563 1563 1564 1565 1567 1568 1569 1569 1570 1571 1572 1573 1573 1574 1575 1575 1576 1577 1578 1579 1579 1580 1580 1580 1580 1581 1581 1581 1581 1581 1582 1582 1583 1583 1583 1583 1583 1583 1583 1582 1583 1583 1583 1583 1583 1583 1582 1582 1582 1581 1581 1581 1581 1580 1580 1580 1580 1579 1579 1578 1578 1578 1578 1577 1577 1577 1577 1577 1576 1576 1576 1576 1575
1551 1551 1552 1552 1553 1553 1554 1554 1555 1556 1558 1559 1561 1561 1563 1564 1566 1567 1568 1569 1569 1570 1571 1572 1572 1573 1574 1575 1575 1576 1577 1578 1579 1579 1580 1579 1579 1580 1581 1581 1581 1581 1581 1582 1582 1582 1582 1583 1583 1583 1582 1582 1583 1583 1583 1583 1583 1583 1583 1582 1582 1581 1581 1580 1580 1580 1580 1579 1579 1579 1579 1578 1578 1577 1577 1576 1576 1576 1576 1575 1575 1575 1575 1575 1574
1550 1551 1551 1551 1552 1553 1553 1553 1554 1555 1556 1558 1559 1561 1562 1564 1565 1566 1567 1567 1568 1569 1570 1571 1571 1572 1573 1574 1575 1576 1576 1577 1578 1579 1579 1579 1579 1580 1580 1581 1581 1581 1581 1582 1582 1582 1582 1582 1582 1582 1582 1582 1583 1583 1583 1583 1583 1583 1582 1582 1582 1581 1581 1580 1580 1580 1579 1579 1578 1578 1578 1578 1577 1577 1576 1576 1575 1575 1574 1574 1574 1574 1574 1574 1573
1549 1550 1550 1551 1552 1552 1552 1553 1553 1554 1555 1557 1559 1560 1561 1563 1563 1564 1565 1566 1567 1568 1570 1570 1571 1572 1572 1573 1574 1575 1575 1576 1577 1578 1579 1579 1579 1580 1580 1580 1581 1580 1581 1581 1581 1582 1582 1582 1582 1582 1581 1582 1582 1583 1583 1582 1582 1582 1582 1582 1581 1581 1580 1580 1580 1579 1579 1578 1578 1578 1577 1577 1577 1576 1576 1575 1575 1574 1574 1573 1573 1573 1572 1572 1572
1548 1549 1550 1550 1551 1551 1552 1552 1553 1554 1555 1557 1558 1559 1560 1561 1562 1563 1564 1565 1567 1568 1569 1570 1570 1571 1572 1572 1573 1574 1574 1575 1576 1576 1577 1578 1579 1579 1579 1580 1580 1580 1580 1581 1581 1581 1581 1581 1581 1582 1582 1582 1582 1582 1582 1582 1582 1581 1581 1581 1580 1580 1580 1579 1579 1579 1579 1578 1577 1577 1576 1576 1576 1575 1575 1574 1574 1574 1573 1572 1572 1571 1571 1571 1571
1548 1549 1549 1549 1550 1551 1551 1552 1552 1553 1555 1556 1557 1558 1560 1561 1562 1563 1564 1565 1566 1567 1568 1569 1570 1570 1571 1571 1572 1573 1573 1573 1574 1575 1575 1576 1577 1578 1579 1579 1579 1580 1580 1580 1580 1581 1581 1581 1581 1581 1581 1581 1581 1581 1581 1581 1581 1581 1580 1580 1580 1580 1579 1579 1578 1578 1578 1577 1577 1576 1576 1575 1575 1574 1574 1573 1573 1572 1572 1571 1570 1570 1569 1569 1569
1547 1548 1548 1549 1549 1550 1550 1551 1552 1553 1554 1556 1557 1559 1560 1561 1562 1563 1564 1565 1565 1566 1567 1568 1568 1569 1570 1571 1571 1572 1572 1572 1573 1573 1574 1575 1576 1577 1577 1578 1578 1579 1579 1579 1580 1580 1580 1581 1581 1581 1581 1581 1580 1580 1580 1580 1580 1580 1580 1580 1580 1579 1579 1578 1578 1577 1577 1577 1576 1575 1575 1575 1574 1574 1573 1572 1572 1571 1570 1570 1569 1568 1568 1567 1566
1547 1547 1547 1548 1549 1549 1550 1551 1552 1553 1555 1556 1557 1558 1560 1561 1562 1562 1563 1564 1565 1565 1566 1567 1567 1568 1569 1570 1570 1571 1571 1572 1572 1573 1573 1574 1574 1575 1576 1576 1577 1577 1577 1578 1578 1579 1580 1580 1580 1580 1580 1580 1580 1579 1579 1580 1580 1580 1580 1580 1579 1579 1578 1578 1578 1577 1577 1576 1576 1575 1575 1574 1573 1573 1572 1571 1570 1570 1569 1568 1568 1567 1566 1566 1565
1546 1546 1547 1547 1549 1549 1550 1552 1553 1554 1556 1557 1557 1558 1559 1560 1561 1562 1563 1564 1564 1565 1565 1566 1567 1568 1568 1569 1570 1570 1571 1571 1572 1573 1573 1573 1574 1574 1574 1575 1575 1575 1576 1576 1577 1578 1578 1578 1579 1579 1579 1579 1579 1579 1579 1579 1579 1579 1579 1579 1579 1578 1578 1578 1577 1577 1576 1576 1575 1574 1574 1574 1573 1572 1571 1571 1570 1569 1569 1568 1567 1566 1565 1565 1564
1545 1546 1546 1547 1548 1549 1550 1551 1553 1554 1555 1556 1557 1558 1559 1560 1561 1562 1563 1564 1565 1565 1566 1566 1567 1568 1569 1570 1571 1571 1571 1572 1572 1573 1573 1574 1574 1574 1574 1574 1574 1574 1574 1575 1575 1576 1576 1577 1577 1578 1578 1578 1578 1578 1578 1578 1578 1578 1578 1578 1578 1578 1578 1577 1577 1576 1576 1575 1574 1574 1573 1573 1573 1572 1571 1570 1570 1569 1568 1567 1566 1565 1564 1564 1562
1545 1546 1546 1547 1548 1549 1550 1551 1553 1554 1555 1556 1557 1558 1559 1560 1561 1562 1564 1564 1565 1565 1566 1567 1567 1568 1569 1570 1571 1572 1572 1572 1573 1573 1574 1574 1574 1574 1574 1574 1574 1574 1574 1574 1575 1575 1575 1576 1576 1577 1577 1577 1578 1578 1578 1578 1578 1578 1578 1578 1579 1579 1578 1577 1577 1577 1576 1575 1574 1573 1573 1573 1572 1572 1571 1570 1569 1568 1567 1567 1566 1565 1564 1563 1562
1544 1546 1546 1548 1548 1549 1550 1550 1552 1553 1554 1555 1556 1557 1558 1559 1561 1562 1563 1564 1565 1566 1566 1567 1568 1568 1569 1570 1571 1572 1572 1573 1573 1574 1574 1574 1575 1575 1575 1575 1575 1575 1575 1575 1575 1575 1575 1576 1576 1576 1577 1577 1578 1578 1578 1578 1578 1578 1578 1578 1579 1579 1578 1577 1577 1577 1576 1575 1574 1573 1573 1573 1572 1571 1571 1570 1569 1568 1567 1566 1565 1564 1563 1562 1561
1544 1546 1546 1548 1549 1549 1550 1550 1551 1552 1553 1554 1555 1556 1557 1559 1560 1562 1563 1564 1565 1566 1567 1567 1568 1569 1569 1570 1571 1571 1572 1573 1574 1574 1575 1575 1575 1576 1576 1576 1576 1576 1576 1576 1576 1576 1576 1576 1576 1576 1577 1577 1577 1577 1577 1578 1578 1578 1578 1578 1579 1579 1578 1578 1577 1576 1576 1575 1574 1573 1572 1573 1572 1571 1571 1570 1569 1568 1567 1566 1565 1564 1563 1562 1561
1543 1545 1546 1547 1548 1549 1549 1550 1551 1552 1553 1553 1554 1555 1556 1557 1559 1560 1562 1564 1564 1566 1566 1567 1568 1569 1569 1570 1571 1572 1573 1573 1574 1575 1576 1576 1576 1577 1577 1577 1577 1577 1577 1577 1577 1577 1577 1577 1576 1576 1576 1576 1577 1577 1577 1577 1577 1578 1578 1578 1579 1578 1578 1577 1577 1577 1576 1575 1574 1573 1571 1572 1572 1571 1570 1569 1568 1568 1567 1566 1565 1564 1563 1561 1560
1542 1544 1545 1546 1548 1549 1549 1550 1551 1552 1553 1554 1554 1555 1556 1556 1557 1559 1561 1562 1563 1565 1566 1567 1568 1569 1570 1570 1571 1572 1573 1574 1575 1576 1577 1577 1577 1578 1577 1578 1577 1578 1578 1578 1577 1577 1577 1577 1577 1576 1576 1576 1576 1577 1577 1576 1577 1577 1578 1578 1578 1578 1578 1577 1577 1577 1575 1574 1574 1573 1571 1570 1570 1570 1569 1568 1567 1566 1565 1565 1564 1563 1562 1561 1560
1541 1543 1545 1546 1547 1549 1549 1550 1551 1552 1553 1554 1555 1555 1555 1556 1556 1558 1560 1561 1563 1564 1566 1566 1568 1569 1570 1571 1571 1572 1573 1574 1575 1576 1577 1577 1578 1578 1578 1578 1578 1578 1578 1578 1578 1578 1578 1577 1577 1577 1577 1576 1577 1577 1577 1577 1576 1577 1577 1578 1578 1578 1578 1577 1576 1576 1575 1574 1574 1572 1571 1569 1568 1568 1568 1567 1566 1564 1563 1563 1562 1561 1561 1560 1559
1539 1542 1544 1546 1547 1548 1549 1550 1551 1552 1553 1554 1555 1555 1556 1556 1557 1558 1559 1560 1562 1564 1566 1566 1568 1569 1570 1571 1572 1573 1574 1574 1575 1576 1577 1577 1577 1578 1578 1578 1578 1578 1578 1578 1578 1578 1578 1578 1577 1577 1577 1577 1577 1578 1577 1577 1577 1577 1577 1578 1578 1579 1578 1577 1576 1574 1573 1573 1573 1572 1570 1569 1568 1567 1566 1565 1564 1563 1562 1561 1560 1559 1559 1558 1557
1537 1540 1543 1545 1546 1547 1548 1550 1551 1552 1553 1553 1554 1555 1555 1556 1557 1558 1560 1561 1561 1563 1565 1567 1568 1569 1570 1571 1571 1572 1573 1574 1575 1576 1576 1577 1577 1578 1577 1577 1578 1578 1578 1579 1579 1578 1578 1577 1577 1577 1577 1577 1577 1577 1577 1578 1578 1578 1578 1578 1579 1579 1578 1577 1576 1573 1571 1569 1570 1570 1569 1568 1567 1565 1565 1564 1562 1561 1560 1559 1558 1557 1557 1556 1555
1535 1538 1541 1543 1545 1547 1548 1549 1550 1551 1551 1552 1553 1554 1555 1556 1557 1559 1560 1561 1562 1563 1565 1566 1567 1569 1569 1570 1571 1572 1573 1574 1575 1576 1576 1577 1577 1578 1577 1577 1578 1578 1579 1579 1579 1579 1578 1578 1578 1577 1577 1577 1577 1577 1577 1578 1578 1578 1578 1578 1578 1578 1578 1577 1576 1574 1572 1567 1566 1567 1567 1566 1565 1564 1563 1562 1561 1559 1558 1557 1557 1556 1554 1554 1553
1533 1536 1538 1541 1544 1545 1547 1548 1549 1550 1550 1551 1552 1553 1555 1556 1558 1559 1560 1561 1562 1563 1564 1566 1567 1568 1569 1569 1571 1572 1573 1574 1575 1576 1576 1577 1578 1578 1578 1578 1578 1579 1579 1579 1579 1579 1579 1579 1578 1578 1577 1577 1577 1577 1577 1577 1577 1577 1577 1577 1577 1577 1577 1576 1575 1574 1572 1569 1565 1563 1563 1562 1561 1562 1562 1560 1559 1558 1557 1556 1554 1553 1552 1551 1550
1531 1534 1537 1540 1542 1544 1546 1546 1548 1549 1550 1551 1552 1553 1555 1557 1558 1559 1559 1560 1561 1563 1564 1565 1566 1568 1568 1569 1570 1571 1573 1574 1575 1576 1577 1577 1578 1578 1578 1578 1578 1579 1579 1579 1579 1579 1579 1578 1578 1577 1577 1577 1577 1577 1577 1576 1576 1576 1575 1575 1575 1574 1574 1573 1573 1572 1571 1569 1566 1563 1562 1559 1557 1557 1558 1558 1557 1556 1555 1553 1552 1551 1550 1549 1548
1530 1533 1535 1538 1540 1542 1544 1545 1547 1548 1550 1551 1552 1553 1555 1557 1558 1559 1559 1560 1561 1562 1563 1564 1566 1567 1568 1569 1570 1571 1573 1574 1575 1576 1577 1577 1578 1578 1578 1578 1578 1579 1579 1579 1579 1578 1578 1577 1577 1577 1576 1576 1576 1576 1576 1576 1575 1575 1574 1574 1573 1573 1572 1571 1571 1570 1569 1567 1565 1562 1561 1559 1555 1554 1554 1554 1553 1552 1551 1551 1550 1549 1548 1547 1546